Regional Weather Roundup
Issued by NWS

Home | Current Version | Previous Version | Text Only | Print | Product List | Glossary On
Versions: 1 2 3 4 5 6 7 8 9 10 11 12 13 14 15 16 17 18 19 20 21 22 23 24 25 26 27 28 29 30 31 32 33 34 35 36 37 38 39 40 41 42 43 44 45 46 47 48 49 50
000
ASUS43 KMKX 021024
RWRWI

WISCONSIN REGIONAL WEATHER ROUNDUP
NATIONAL WEATHER SERVICE MILWAUKEE/SULLIVAN WI
500 AM CDT TUE JUN 02 2015

NOTE: "FAIR" INDICATES FEW OR NO CLOUDS BELOW 12,000 FEET WITH NO
SIGNIFICANT WEATHER AND/OR OBSTRUCTIONS TO VISIBILITY.

WIZ001-002-006>008-014>016-023>028-021100-
NORTHWEST WISCONSIN

CITY           SKY/WX    TMP DP  RH WIND       PRES   REMARKS
SUPERIOR ARPT  PTCLDY    40  35  81 NE5       30.11F
ASHLAND        CLOUDY    39  39 100 CALM      30.13F
HAYWARD        MOCLDY    50  38  63 S5        30.13F
SIREN          PTCLDY    51  40  66 S9        30.10S
CUMBERLAND     PTCLDY    46  37  71 SE5       30.13S
RICE LAKE      PTCLDY    50  39  66 SE8       30.15S
CHETEK         PTCLDY    46  41  83 CALM      30.14F
LADYSMITH      CLEAR     45  38  79 E6        30.17F
EAU CLAIRE     NOT AVBL
MENOMONIE      PTCLDY    48  40  75 CALM      30.14R
NEW RICHMOND   PTCLDY    52  40  63 SE6       30.11S
OSCEOLA        MOCLDY    51  42  72 SE6       30.13S
$$

WIZ003>005-009-010-017-018-021100-
NORTH CENTRAL WISCONSIN

CITY           SKY/WX    TMP DP  RH WIND       PRES   REMARKS
MANITOWISH WTR CLEAR     44  38  82 S5        30.18R
ARBOR VITAE    CLEAR     45  37  75 S5        30.18S
WOODRUFF       CLEAR     45  37  75 S5        30.18S
RHINELANDER    PTCLDY    35  33  92 CALM      30.20R
EAGLE RIVER    CLEAR     35  35 100 CALM      30.18S FOG
LAND O LAKES   CLEAR     32  32 100 CALM      30.20R
PHILLIPS       PTCLDY    46  38  76 S3        30.17R
TOMAHAWK       PTCLDY    34  32  94 CALM      30.20R
MEDFORD        CLEAR     44  38  79 SE3       30.19R
MERRILL        PTCLDY    36  36  99 CALM      30.20S
$$

WIZ029-030-035-036-043>047-021100-
CENTRAL WISCONSIN

CITY           SKY/WX    TMP DP  RH WIND       PRES   REMARKS
WAUSAU         PTCLDY    41  38  89 E5        30.19R
MOSINEE        PTCLDY    39  37  93 CALM      30.21R
MARSHFIELD     CLEAR     43  36  76 CALM      30.19R
STEVENS POINT  PTCLDY    37  35  96 CALM      30.21R
WAUPACA        PTCLDY    41  40  97 CALM      30.20S
WAUTOMA        NOT AVBL
WISC RAPIDS    PTCLDY    40  35  83 SE3       30.21R
CAMP DOUGLAS   FOG       35  35 100 E3        30.18S VSB 1/2
$$

WIZ011>013-019>022-031-037>040-048>050-021100-
NORTHEAST WISCONSIN

CITY           SKY/WX    TMP DP  RH WIND       PRES   REMARKS
ANTIGO         PTCLDY    38  37  95 CALM      30.20R
SHAWANO        CLEAR     42  40  93 CALM      30.21R
OCONTO         CLEAR     35  35 100 CALM      30.20S
STURGEON BAY   CLEAR     39  34  81 CALM      30.22S
GREEN BAY      CLEAR     41  39  93 W3        30.21R
MANITOWOC      NOT AVBL
APPLETON       CLEAR     46  36  66 CALM      30.20R
CLINTONVILLE   CLEAR     39  37  93 CALM      30.20S
OSHKOSH        CLEAR     40  35  83 CALM      30.19R
$$

WIZ032>034-041-042-053>061-021100-
SOUTHWEST WISCONSIN

CITY           SKY/WX    TMP DP  RH WIND       PRES   REMARKS
LA CROSSE      MOCLDY    51  38  60 SE8       30.16R
SPARTA         MOCLDY    36  35  96 CALM      30.18S
VIROQUA        MOCLDY    46  36  68 SE6       30.17S
BOSCOBEL       PTCLDY    40  38  93 CALM      30.19S
PRAIRIE DU CHI PTCLDY    49  38  66 E3        30.17S
PLATTEVILLE    CLEAR     45  40  81 E7        30.18S
$$

WIZ056-057-062-063-064-067-068-021100-
SOUTH CENTRAL WISCONSIN

CITY           SKY/WX    TMP DP  RH WIND       PRES   REMARKS
REEDSBURG      CLEAR     39  38  96 CALM      30.18F
BARABOO/DELLS  CLEAR     39  35  87 CALM      30.18F
LONE ROCK      NOT AVBL
MINERAL POINT  CLEAR     45  37  76 SE6       30.19S
MADISON        CLEAR     41  35  79 CALM      30.19S
MIDDLETON      CLEAR     40  38  93 CALM      30.19F
WATERTOWN      CLEAR     39  38  97 CALM      30.19S
MONROE         CLEAR     45  36  70 E3        30.18S
JANESVILLE     CLEAR     43  41  93 CALM      30.18S
$$

WIZ051-052-058>065-066-070>072-021100-
SOUTHEAST WISCONSIN

CITY           SKY/WX    TMP DP  RH WIND       PRES   REMARKS
MILWAUKEE      PTCLDY    41  34  76 NW3       30.20S
WAUKESHA       CLEAR     37  34  87 CALM      30.20S
MILWAUKEE/TIMM CLEAR     39  34  81 CALM      30.21R
RACINE         CLEAR     43  37  79 N3        30.21S
BURLINGTON     CLEAR     35  35  98 CALM      30.19S
KENOSHA        CLEAR     37  34  89 NW3       30.19S
FOND DU LAC    CLEAR     39  38  96 CALM      30.19S
SHEBOYGAN      CLEAR     39  37  92 CALM      30.20S
WEST BEND      CLEAR     37  36  93 CALM      30.20S
JUNEAU         CLEAR     40  36  85 CALM      30.20F
$$

LSZ147-162-021100-
LAKE SUPERIOR

STATION/POSITION TIME  TEMP    WIND        PRES    WAVE
                       AIR SEA DIR/SP/G            HT/PER
                 (UTC) (F)     (DEG/KT/KT) (MB)    (FT/S)
W MID LAKE BUOY  0850   39 37  140/  4/  4   N/A     1
DEVILS ISLAND    0900   45     140/  4/  5   N/A
PORT WING        0900   42     180/  2/  3   N/A
SAXON HARBOR     0940   53     190/  2/  8   N/A
$$

LMZ867-665-643>646-021100-
LAKE MICHIGAN

STATION/POSITION TIME  TEMP    WIND        PRES    WAVE
                       AIR SEA DIR/SP/G            HT/PER
                 (UTC) (F)     (DEG/KT/KT) (MB)    (FT/S)
CHAMBERS ISLAND  0900   40     190/  1/  2   N/A
N MID LAKE BUOY  0850   44 37  190/  8/ 10   N/A     0
NORTHPORT PIER   0900   46     160/  4/  8   N/A
SISTER BAY       0903   46     150/  8/ 12   N/A
ALGOMA LAKESHORE 0939             CALM       N/A
KEWAUNEE LAKESHO 0900   41      CALM  /  1   N/A
SHEBOYGAN LAKESH 0900   48      10/  1/  2   N/A
ATWATER BUOY     0900   46     360/  2/  4   N/A
MILWAUKEE LAKESH 0900   47     340/  1/  2   N/A
S MID LAKE BUOY  0850   43 38   50/  6/  6   N/A     1/ 4
KENOSHA   LAKESH 0800   47      10/  2/  4   N/A
$$

TC  - TEMPERATURE IN CELSIUS
VSB - VISIBILITY IN STATUTE MILES
WCI - WIND CHILL INDEX
HX  - HEAT INDEX




USA.gov is the U.S. government's official web portal to all federal, state and local government web resources and services.